Powrót do katalogu

PRAETORIAN SDA_608

AktywnyMilitariaPO
NORAD 65571·PAYLOAD·🇺🇸 United States

Wystrzelony Sep 10, 2025 z Vandenberg Space Force Base

Loading…

Następne Przeloty (najbliższe 24 godziny)

TLE

ŚwieżeSource: Space-Track

Epoka: Sep 14, 2026, 12:21 UTC

1 65571U 25203G   26257.51487739  .00000057  00000-0  41088-4 0  9999
2 65571  81.2979 288.1166 0005267 326.1101  33.9719 13.83824601 51046

Śledź PRAETORIAN SDA_608 w czasie rzeczywistym z AllMySat

Download on the App Store